880GM KTYS-KCHA

Flight info

Callsign 880GM
Flight time 0h 35m
Altitude 5000
Route KTYS HETIP JOXAT ZUBAN KCHA
Aircraft SR20/L-S/N

Departure

Time 2026-04-25 23:33
Airport McGhee Tyson Airport (KTYS)

Arrival

Time 2026-04-26 00:08
Airport Chattanooga Metropolitan Airport (Lovell Field) (KCHA)
Time Latitude Longitude Altitude Speed Heading
2026-04-25 23:27 35.82270 -83.98305 962 ft 0 kts 224°
2026-04-25 23:32 35.82264 -83.98312 963 ft 13 kts 220°
2026-04-25 23:32 35.82028 -83.98596 970 ft 76 kts 225°
2026-04-25 23:33 35.81642 -83.99142 1247 ft 78 kts 233°
2026-04-25 23:33 35.81282 -83.99733 1446 ft 91 kts 234°
2026-04-25 23:33 35.80828 -84.00152 1777 ft 86 kts 192°
2026-04-25 23:33 35.80300 -83.99893 2020 ft 90 kts 120°
2026-04-25 23:34 35.80238 -83.99131 2242 ft 98 kts 68°
2026-04-25 23:34 35.80905 -83.98859 2231 ft 121 kts 341°
2026-04-25 23:34 35.81480 -83.99510 2531 ft 116 kts 295°
2026-04-25 23:34 35.81543 -84.00490 2758 ft 117 kts 255°
2026-04-25 23:35 35.81085 -84.01291 3012 ft 115 kts 223°
2026-04-25 23:35 35.80534 -84.01956 3326 ft 109 kts 227°
2026-04-25 23:35 35.79986 -84.02600 3560 ft 111 kts 215°
2026-04-25 23:35 35.79304 -84.03055 3775 ft 114 kts 206°
2026-04-25 23:36 35.78744 -84.03787 3867 ft 125 kts 232°
2026-04-25 23:36 35.78321 -84.04290 3992 ft 125 kts 219°
2026-04-25 23:36 35.77537 -84.05091 4470 ft 110 kts 227°
2026-04-25 23:36 35.77054 -84.05955 4436 ft 132 kts 229°
2026-04-25 23:37 35.76405 -84.06778 4520 ft 137 kts 223°
2026-04-25 23:37 35.75794 -84.07702 4582 ft 141 kts 233°
2026-04-25 23:37 35.75162 -84.08622 4683 ft 141 kts 231°
2026-04-25 23:37 35.74582 -84.09571 4841 ft 138 kts 236°
2026-04-25 23:38 35.73963 -84.10499 4876 ft 144 kts 229°
2026-04-25 23:38 35.73349 -84.11478 4943 ft 142 kts 233°
2026-04-25 23:38 35.72771 -84.12474 5010 ft 142 kts 235°
2026-04-25 23:38 35.72188 -84.13443 5074 ft 142 kts 236°
2026-04-25 23:39 35.71603 -84.14456 5029 ft 148 kts 236°
2026-04-25 23:39 35.71016 -84.15490 5037 ft 149 kts 232°
2026-04-25 23:39 35.70349 -84.16460 5069 ft 147 kts 230°
2026-04-25 23:39 35.69701 -84.17395 5171 ft 143 kts 229°
2026-04-25 23:40 35.69060 -84.18350 5144 ft 148 kts 231°
2026-04-25 23:40 35.68416 -84.19366 5061 ft 154 kts 232°
2026-04-25 23:40 35.67756 -84.20391 5100 ft 150 kts 231°
2026-04-25 23:40 35.67097 -84.21410 5005 ft 157 kts 232°
2026-04-25 23:41 35.66426 -84.22477 4971 ft 156 kts 233°
2026-04-25 23:41 35.65778 -84.23529 4957 ft 155 kts 234°
2026-04-25 23:41 35.65109 -84.24555 4956 ft 154 kts 231°
2026-04-25 23:41 35.64452 -84.25592 4948 ft 153 kts 233°
2026-04-25 23:42 35.63800 -84.26637 4898 ft 155 kts 232°
2026-04-25 23:42 35.63130 -84.27690 4848 ft 156 kts 232°
2026-04-25 23:42 35.62523 -84.28765 4871 ft 154 kts 238°
2026-04-25 23:42 35.61997 -84.29894 4899 ft 151 kts 242°
2026-04-25 23:43 35.61497 -84.31020 4895 ft 151 kts 242°
2026-04-25 23:43 35.61027 -84.32181 4871 ft 153 kts 245°
2026-04-25 23:43 35.60571 -84.33336 4899 ft 150 kts 244°
2026-04-25 23:43 35.60070 -84.34486 4850 ft 154 kts 241°
2026-04-25 23:44 35.59559 -84.35618 4878 ft 151 kts 242°
2026-04-25 23:44 35.59051 -84.36744 4855 ft 153 kts 241°
2026-04-25 23:44 35.58514 -84.37881 4851 ft 151 kts 240°
2026-04-25 23:44 35.58007 -84.38996 4862 ft 151 kts 242°
2026-04-25 23:45 35.57521 -84.40130 4922 ft 147 kts 243°
2026-04-25 23:45 35.57068 -84.41242 4949 ft 147 kts 244°
2026-04-25 23:45 35.56583 -84.42363 4951 ft 149 kts 241°
2026-04-25 23:45 35.56077 -84.43464 4972 ft 148 kts 241°
2026-04-25 23:46 35.55576 -84.44571 4978 ft 149 kts 241°
2026-04-25 23:46 35.55070 -84.45678 4991 ft 149 kts 242°
2026-04-25 23:46 35.54596 -84.46803 5006 ft 149 kts 243°
2026-04-25 23:46 35.54107 -84.47920 5017 ft 149 kts 242°
2026-04-25 23:47 35.53633 -84.49047 5030 ft 149 kts 244°
2026-04-25 23:47 35.53160 -84.50184 5028 ft 149 kts 243°
2026-04-25 23:47 35.52677 -84.51309 5011 ft 150 kts 242°
2026-04-25 23:47 35.52176 -84.52420 5013 ft 149 kts 240°
2026-04-25 23:48 35.51664 -84.53522 5004 ft 149 kts 242°
2026-04-25 23:48 35.51153 -84.54627 5000 ft 149 kts 240°
2026-04-25 23:48 35.50638 -84.55717 5021 ft 147 kts 240°
2026-04-25 23:48 35.50145 -84.56814 5022 ft 148 kts 242°
2026-04-25 23:49 35.49665 -84.57941 5016 ft 148 kts 243°
2026-04-25 23:49 35.49187 -84.59050 5044 ft 147 kts 242°
2026-04-25 23:49 35.48696 -84.60166 5000 ft 151 kts 242°
2026-04-25 23:49 35.48187 -84.61276 5033 ft 148 kts 241°
2026-04-25 23:50 35.47680 -84.62366 5028 ft 149 kts 241°
2026-04-25 23:50 35.47180 -84.63487 5002 ft 150 kts 242°
2026-04-25 23:50 35.46690 -84.64603 5034 ft 148 kts 242°
2026-04-25 23:50 35.46198 -84.65727 5018 ft 150 kts 241°
2026-04-25 23:51 35.45673 -84.66829 5016 ft 149 kts 239°
2026-04-25 23:51 35.45160 -84.67918 5063 ft 146 kts 240°
2026-04-25 23:51 35.44664 -84.69019 5024 ft 150 kts 242°
2026-04-25 23:51 35.44185 -84.70145 5039 ft 149 kts 243°
2026-04-25 23:52 35.43714 -84.71259 5068 ft 147 kts 242°
2026-04-25 23:52 35.43208 -84.72363 5027 ft 151 kts 239°
2026-04-25 23:52 35.42675 -84.73468 5049 ft 149 kts 239°
2026-04-25 23:52 35.42172 -84.74565 5055 ft 149 kts 242°
2026-04-25 23:53 35.41691 -84.75685 5059 ft 148 kts 242°
2026-04-25 23:53 35.41196 -84.76796 5044 ft 150 kts 241°
2026-04-25 23:53 35.40685 -84.77904 5046 ft 149 kts 240°
2026-04-25 23:53 35.40185 -84.79012 5052 ft 149 kts 241°
2026-04-25 23:54 35.39694 -84.80128 5044 ft 150 kts 242°
2026-04-25 23:54 35.39184 -84.81242 5048 ft 149 kts 240°
2026-04-25 23:54 35.38671 -84.82341 5048 ft 149 kts 241°
2026-04-25 23:54 35.38177 -84.83457 5044 ft 149 kts 242°
2026-04-25 23:55 35.37682 -84.84570 5048 ft 149 kts 241°
2026-04-25 23:55 35.37191 -84.85685 5046 ft 149 kts 242°
2026-04-25 23:55 35.36702 -84.86801 5045 ft 149 kts 242°
2026-04-25 23:55 35.36209 -84.87916 5047 ft 149 kts 241°
2026-04-25 23:56 35.35705 -84.89033 5045 ft 149 kts 242°
2026-04-25 23:56 35.35235 -84.90163 5043 ft 149 kts 245°
2026-04-25 23:56 35.34819 -84.91326 5041 ft 149 kts 245°
2026-04-25 23:56 35.34267 -84.92400 5021 ft 150 kts 233°
2026-04-25 23:57 35.33662 -84.93436 5035 ft 149 kts 238°
2026-04-25 23:57 35.33139 -84.94529 5032 ft 149 kts 240°
2026-04-25 23:57 35.32640 -84.95592 5049 ft 142 kts 240°
2026-04-25 23:57 35.32159 -84.96685 4848 ft 149 kts 243°
2026-04-25 23:58 35.31705 -84.97812 4749 ft 147 kts 242°
2026-04-25 23:58 35.31193 -84.98883 4650 ft 145 kts 237°
2026-04-25 23:58 35.30680 -84.99939 4517 ft 145 kts 240°
2026-04-25 23:58 35.30198 -85.01020 4376 ft 146 kts 243°
2026-04-25 23:59 35.29722 -85.02110 4273 ft 144 kts 240°
2026-04-25 23:59 35.29238 -85.03157 4176 ft 143 kts 241°
2026-04-25 23:59 35.28765 -85.04243 4025 ft 144 kts 241°
2026-04-25 23:59 35.28231 -85.05265 3938 ft 142 kts 239°
2026-04-26 00:00 35.27738 -85.06311 3811 ft 143 kts 242°
2026-04-26 00:00 35.27270 -85.07379 3700 ft 142 kts 241°
2026-04-26 00:00 35.26798 -85.08433 3599 ft 142 kts 242°
2026-04-26 00:00 35.26354 -85.09509 3479 ft 142 kts 243°
2026-04-26 00:01 35.25878 -85.10561 3379 ft 141 kts 240°
2026-04-26 00:01 35.25375 -85.11601 3270 ft 141 kts 240°
2026-04-26 00:01 35.24910 -85.12657 3163 ft 141 kts 244°
2026-04-26 00:01 35.24504 -85.13742 3089 ft 139 kts 246°
2026-04-26 00:02 35.24102 -85.14823 2952 ft 142 kts 243°
2026-04-26 00:02 35.23487 -85.15756 2787 ft 145 kts 218°
2026-04-26 00:02 35.22686 -85.16511 2653 ft 145 kts 217°
2026-04-26 00:02 35.21866 -85.17257 2448 ft 149 kts 216°
2026-04-26 00:03 35.20986 -85.17970 2222 ft 152 kts 209°
2026-04-26 00:03 35.19968 -85.18168 2140 ft 145 kts 181°
2026-04-26 00:03 35.18950 -85.18166 1954 ft 149 kts 179°
2026-04-26 00:03 35.17925 -85.18140 1821 ft 147 kts 178°
2026-04-26 00:04 35.16910 -85.18098 1683 ft 147 kts 176°
2026-04-26 00:04 35.15925 -85.17951 1703 ft 136 kts 171°
2026-04-26 00:04 35.15009 -85.17745 1678 ft 133 kts 168°
2026-04-26 00:04 35.14103 -85.17501 1625 ft 133 kts 168°
2026-04-26 00:05 35.13199 -85.17261 1572 ft 132 kts 167°
2026-04-26 00:05 35.12323 -85.17006 1653 ft 121 kts 170°
2026-04-26 00:05 35.11518 -85.16939 1740 ft 115 kts 180°
2026-04-26 00:05 35.10757 -85.17084 1829 ft 111 kts 197°
2026-04-26 00:06 35.10020 -85.17433 1806 ft 116 kts 204°
2026-04-26 00:06 35.09270 -85.17859 1755 ft 122 kts 205°
2026-04-26 00:06 35.08471 -85.18275 1690 ft 127 kts 200°
2026-04-26 00:06 35.07660 -85.18651 1631 ft 116 kts 200°
2026-04-26 00:07 35.06968 -85.18969 1546 ft 103 kts 201°
2026-04-26 00:07 35.06305 -85.19256 1375 ft 101 kts 197°
2026-04-26 00:07 35.05651 -85.19493 1220 ft 96 kts 197°
2026-04-26 00:07 35.05030 -85.19716 1046 ft 91 kts 199°
2026-04-26 00:08 35.04444 -85.19960 817 ft 88 kts 197°
2026-04-26 00:08 35.03890 -85.20149 669 ft 76 kts 196°
2026-04-26 00:08 35.03462 -85.20322 667 ft 55 kts 201°
2026-04-26 00:08 35.03223 -85.20417 671 ft 23 kts 194°
2026-04-26 00:09 35.03073 -85.20460 672 ft 21 kts 191°
2026-04-26 00:09 35.03021 -85.20476 673 ft 8 kts 193°
2026-04-26 00:09 35.02957 -85.20458 672 ft 10 kts 123°
2026-04-26 00:09 35.02918 -85.20388 672 ft 8 kts 165°
2026-04-26 00:10 35.02858 -85.20353 670 ft 12 kts 135°
2026-04-26 00:10 35.02843 -85.20333 670 ft 3 kts 126°
2026-04-26 00:10 35.02836 -85.20320 670 ft 0 kts 127°